[Iaude] MPEC A229: 2019 AK10 [a=1.05,e=0.56,i=38.2,H=20.9]

mpec at mpcdb1.cfa.harvard.edu mpec at mpcdb1.cfa.harvard.edu
Mon Jan 14 07:33:16 EST 2019


M.P.E.C. 2019-A229                               Issued 2019 Jan. 14, 12:29 UT
 
     The Minor Planet Electronic Circulars contain information on unusual
         minor planets and routine data on comets.  They are published
    on behalf of Division F of the International Astronomical Union by the
          Minor Planet Center, Smithsonian Astrophysical Observatory,
                          Cambridge, MA 02138, U.S.A.

             Prepared using the Tamkin Foundation Computer Network

                              MPC at CFA.HARVARD.EDU
            URL https://www.minorplanetcenter.net/    ISSN 1523-6714


                                   2019 AK10
 
Observations:
     K19A10K* C2019 01 11.41334 07 12 19.594+80 52 10.73         20.1 wUEA229F51
     K19A10K  C2019 01 11.42961 07 11 41.324+80 49 56.09         20.2 wUEA229F51
     K19A10K  C2019 01 11.44280 07 11 10.571+80 48 06.78         20.3 wUEA229F51
     K19A10K ^C2019 01 12.34975806 43 41.661+78 38 02.86         20.04GVEA229568
     K19A10K ^C2019 01 12.35070706 43 40.230+78 37 54.62         20.11GVEA229568
     K19A10K ^C2019 01 12.35166206 43 38.772+78 37 46.17         20.04GVEA229568
     K19A10K KC2019 01 12.79770 06 33 47.56 +77 31 15.1          20.1 GVEA229104
     K19A10K KC2019 01 12.80540 06 33 38.22 +77 30 06.5          20.1 GVEA229104
     K19A10K KC2019 01 12.84006 06 32 55.82 +77 24 57.4          20.0 GVEA229104
     K19A10K 1C2019 01 13.33428 06 23 58.98 +76 10 30.2                LEA229658
     K19A10K 1C2019 01 13.33546 06 23 57.81 +76 10 17.7                LEA229658
     K19A10K 1C2019 01 13.33663 06 23 56.57 +76 10 07.2                LEA229658
     K19A10K KC2019 01 13.82817906 16 44.66 +74 55 22.1          20.4 GVEA229J95
     K19A10K KC2019 01 13.84421406 16 31.34 +74 52 57.0          20.3 GVEA229J95
     K19A10K KC2019 01 13.85077306 16 25.93 +74 51 56.8          19.9 GVEA229J95
 
Observer details:
104 San Marcello Pistoiese.  Observers P. Bacci, M. Maestripieri,
    R. Agresti.  Measurers P. Bacci, L. Tesi, G. Fagioli.  0.60-m reflector +
    CCD.
568 Mauna Kea.  Observers R. Wainscoat, L. Wells, S. Prunet.  Measurers
    R. Weryk, R. Wainscoat.  3.6-m Canada-France-Hawaii Telescope + CCD.
658 National Research Council of Canada.  Observer D. D. Balam.  1.82-m
    reflector + CCD.
F51 Pan-STARRS 1, Haleakala.  Observers J. Bulger, T. Lowe, A. Schultz,
    M. Willman.  Measurers K. Chambers, S. Chastel, L. Denneau, J. Fairlamb,
    H. Flewelling, M. Huber, C.-C. Lin, E. Magnier, Y. Ramanjooloo,
    R. Wainscoat, R. Weryk.  1.8-m Ritchey-Chretien + CCD.
J95 Great Shefford.  Observer P. Birtwhistle.  0.41-m f/6.3
    Schmidt-Cassegrain + CCD.
 
Orbital elements:
2019 AK10                                                Earth MOID = 0.2843 AU
Epoch 2019 Apr. 27.0 TT = JDT 2458600.5                 MPC
M 164.76919              (2000.0)            P               Q
n   0.90985068     Peri.   28.42302     +0.80520917     +0.30174242
a   1.0547656      Node   304.36928     -0.58938276     +0.50205643
e   0.5561321      Incl.   38.20314     +0.06531576     +0.81048804
P   1.08           H   20.9           G   0.15           U   9
Residuals in seconds of arc
190111 F51  0.3-  0.0     190112 568  0.1+  0.5-    190113 658  0.3-  0.2-
190111 F51  0.0   0.1-    190112 104  0.3-  0.4+    190113 658  0.5-  0.0
190111 F51  0.3+  0.1+    190112 104  0.2+  0.2+    190113 J95  0.1-  0.1+
190112 568  0.1+  0.5-    190112 104  0.8+  0.3-    190113 J95  0.0   0.2+
190112 568  0.1+  0.4-    190113 658  0.4-  1.6+    190113 J95  0.1+  0.5-

Ephemeris:
2019 AK10                a,e,i = 1.05, 0.56, 38                  q = 0.4682
Date    TT    R. A. (2000) Decl.     Delta      r     Elong.  Phase     V
2018 12 15    16 34 05.9 +41 18 44   0.4186  0.8976    65.8    89.1    21.9
...
2018 12 30    16 09 10.2 +65 25 22   0.3141  1.0473    92.9    69.7    20.9
...
2019 01 07    13 43 54.0 +83 13 07   0.2865  1.1197   111.3    54.9    20.4
...
2019 01 13    06 29 49.1 +77 00 50   0.2899  1.1705   124.0    44.2    20.3
2019 01 14    06 14 26.8 +74 29 13   0.2928  1.1787   125.7    42.6    20.2
2019 01 15    06 03 39.4 +71 57 02   0.2964  1.1868   127.3    41.2    20.2
...
2019 01 21    05 36 32.4 +57 43 24   0.3307  1.2338   133.1    35.6    20.4
...
2019 01 29    05 29 12.5 +43 11 48   0.4049  1.2919   132.1    34.4    20.9
...
2019 02 13    05 34 14.3 +27 30 57   0.5957  1.3877   120.5    37.8    22.0

A. U. Tomatic                (C) Copyright 2019 MPC           M.P.E.C. 2019-A229



More information about the Iaude mailing list